Location: Tom
(33.0437°N, 96.9452°W)
Time: 23:28:34
(UTC-05:00)

ISS - Visible Passes

Search period start: 17 October 2019 00:00
Search period end: 27 October 2019 00:00
Orbit: 411 x 421 km, 51.6° (Epoch: 17 October)

Date Brightness Start Highest point End Pass type
(mag) Time Alt. Az. Time Alt. Az. Time Alt. Az.
21 Oct -0.7 06:45:24 10° SSE 06:47:28 15° SE 06:49:32 10° E visible
23 Oct -3.0 06:43:31 10° SSW 06:46:47 53° SE 06:50:05 10° NE visible
24 Oct -1.7 05:56:54 19° S 05:58:19 26° SE 06:01:12 10° ENE visible
25 Oct -0.3 05:11:23 11° E 05:11:23 11° E 05:11:43 10° E visible
25 Oct -3.3 06:44:20 19° WSW 06:46:20 41° NW 06:49:33 10° NNE visible
26 Oct -3.0 05:58:33 48° NE 05:58:33 48° NE 06:01:06 10° NE visible
